sat.trackr.live / text

‹ back to catalog

UNKNOWN

NORAD 81745

UNKNOWN UNKNOWN UNKNOWN

§ Identity

Operator
Country
Launch date
Launch site
Launch vehicle
Mass (kg)
RCS (m²)

External: N2YO · Heavens-Above

§ Orbital elements

Epoch: 2026-09-18T07:46:23.354688Z

Period
99.89 min
Inclination
70.9988°
Eccentricity
0.0004048
Mean motion
14.41527139 rev/d
Perigee alt
750.6 km
Apogee alt
756.3 km
Semi-major
7,131.6 km
B*
3.7243e-4
RAAN
134.8763°
Arg perigee
144.0581°
Mean anomaly
216.0828°
Rev number
67,002

§ Raw data

UNKNOWN1 81745U          26261.32388142  .00001160  00000+0  37243-3 0  99922 81745  70.9988 134.8763 0004048 144.0581 216.0828 14.41527139670028

JSON: /api/v1/satellites/81745 · /tle

For live sub-satellite position, see the globe view (requires WebGL).

§ Visibility from observer

Set your observer location to see the next 7 days of passes ≥ 10°. The values pass through the URL so the page stays shareable.

No JS? Fill the form by hand. The geolocation button needs JavaScript.